www.pogodaiklimat.ru

Погода и климат >> Архив погоды >> Колумбия >> Barranquilla


ПОГОДА в Barranquilla

  • Прогноз погоды в Barranquilla
  • Монитор погоды в Barranquilla
  • Климат города

АРХИВ ПОГОДЫ в Barranquilla

Время (UTC), дата Ветер
(напр.,м/с)
 
Видим.   Явления Облачность Т
(С)
Тd
(С)
f
(%)
Тe
(С)
Тes
(С)
Комфортность P
(гПа)
Po
(гПа)
Тmin
(С)
Tmax
(С)
R
(мм)
R24
(мм)
S
(см)
12 17.04 С 5 7000 м туман на расстоянии 5/4 300 м
[St Ci sp]
+26.5 +24.2 87 +37 +37 очень
душно
1011.5 1008.0 +25.7
15 17.04 С 5 10 км мгла 5/4 450 м
[St Ci sp]
+29.9 +24.5 73 +42 +47 опасность
перегрева
1012.3 1008.8
18 17.04 С 8 10 км мгла 4/3 450 м
[St Cs]
+32.2 +24.3 63 +44 +47 опасность
перегрева
1010.4 1006.9
21 17.04 С 5 10 км мгла 8/3 450 м
[St Cs]
+28.8 +23.9 75 +40 +42 очень
душно
1008.2 1004.7
00 18.04 С 11 10 км мгла 8/6 450 м
[St Ci sp]
+26.9 +24.3 86 +38 +38 очень
душно
1009.7 1006.2 +32.8
03 18.04 С 11 10 км мгла 8/6 450 м
[St Ci sp]
+26.9 +24.3 86 +38 +38 очень
душно
1011.5 1008.0
06 18.04 С 8 10 км мгла 8/6 450 м
[St Ci sp]
+26.2 +24.6 91 +37 +37 очень
душно
1010.5 1007.0
09 18.04 З 2 10 км мгла 3/1 450 м
[St Ci sp]
+25.6 +24.4 93 +36 +36 очень
душно
1009.1 1005.6
12 18.04 С 4 10 км дымка {туман} 8/3 300 м
[St Cs]
+26.7 +25.1 91 +38 +39 очень
душно
1010.7 1007.2 +25.4
15 18.04 С 6 10 км мгла {туман} 6/5 450 м
[St Cs]
+29.9 +25.0 75 +43 +46 опасность
перегрева
1011.8 1008.3
18 18.04 СЗ 5 10 км мгла 4/3 450 м
[St Ci sp]
+32.6 +24.3 62 +45 +52 опасность
перегрева
1010.5 1007.0
21 18.04 С 6 10 км мгла 5/3 450 м
[St Cs]
+30.7 +24.1 68 +43 +44 опасность
перегрева
1008.4 1004.9
00 19.04 С 9 10 км мгла 8/3 450 м
[Cb cap Ac trans Cs]
+27.3 +24.2 83 +38 +38 очень
душно
1009.3 1005.9
03 19.04 С 6 10 км мгла 5/3 360 м
[St Cs]
+27.2 +23.4 80 +37 +37 очень
душно
1010.3 1006.8
06 19.04 штиль 0 10 км 8/3 360 м
[St Cs]
+25.4 +23.1 87 +34 +34 очень
душно
1009.8 1006.3 50
09 19.04 С 3 10 км мгла 4/4 360 м
[St]
+26.1 +24.5 91 +37 +37 очень
душно
1009.2 1005.7
12 19.04 С 4 10 км мгла {туман} 9/3 300 м
[St Cs]
+26.8 +24.1 85 +37 +38 очень
душно
1010.5 1007.0 +24.4
15 19.04 ЮВ 2 10 км мгла 8/3 450 м
[St Cs]
+32.3 +23.5 60 +43 +54 опасность
перегрева
1010.9 1007.4
18 19.04 С 8 10 км мгла 9/3 450 м
[Sc Ac trans Cs]
+31.8 +24.7 66 +45 +46 опасность
перегрева
1009.5 1006.0
00 20.04 С 6 10 км мгла 5/1 450 м
[Cu hum Cs]
+27.5 +24.4 83 +39 +39 очень
душно
1009.1 1005.6 +34.2
03 20.04 С 5 10 км мгла 5/3 450 м
[Cu hum Cs]
+27.0 +24.4 86 +38 +38 очень
душно
1010.9 1007.4
06 20.04 С 6 10 км мгла 6/3 450 м
[St Cs]
+27.0 +24.6 87 +38 +38 очень
душно
1009.9 1006.4
09 20.04 С 4 8000 м туман на расстоянии 8/3 450 м
[St Cs]
+26.6 +23.7 84 +36 +36 очень
душно
1011.7 1008.2
12 20.04 С 4 10 км мгла {туман} 10/4 300 м
[St Cs]
+27.2 +24.2 84 +38 +39 очень
душно
1009.9 1006.4 +26.6
15 20.04 нст 1 10 км мгла 10/4 450 м
[St Cs]
+31.1 +24.7 69 +44 +54 опасность
перегрева
1010.8 1007.3
18 20.04 С 6 10 км мгла 9/3 450 м
[Cu hum Cs]
+32.3 +25.7 68 +47 +52 опасность
перегрева
1009.4 1005.9
21 20.04 С 7 10 км мгла 9/3 450 м
[Cb cap Ac trans Cs]
+29.9 +24.1 71 +41 +42 опасность
перегрева
1008.2 1004.7
00 21.04 С 5 10 км мгла 10/3 450 м
[Cb cap Ac trans Cs]
+27.0 +24.4 86 +38 +38 очень
душно
1009.4 1005.9 +34.4
03 21.04 С 8 10 км мгла 8/3 360 м
[St Cs]
+26.9 +24.3 86 +38 +38 очень
душно
1010.4 1006.9
06 21.04 С 6 10 км мгла 10/4 360 м
[St Cs]
+26.7 +24.5 88 +38 +38 очень
душно
1009.7 1006.2
09 21.04 С 7 10 км мгла 8/3 360 м
[St Cs]
+26.6 +24.4 88 +37 +37 очень
душно
1008.4 1004.9
12 21.04 С 6 10 км мгла {туман} 9/4 300 м
[St Ac trans Ci sp]
+26.6 +24.1 86 +37 +37 очень
душно
1009.6 1006.1 +26.2
15 21.04 СВ 7 10 км мгла 3/1 450 м
[Cu hum Ci sp]
+30.2 +24.0 69 +42 +46 опасность
перегрева
1010.4 1006.9
18 21.04 С 8 10 км мгла 4/1 450 м
[Cu hum Ci sp]
+31.6 +24.6 66 +44 +47 опасность
перегрева
1008.6 1005.1
21 21.04 С 7 10 км мгла 5/1 450 м
[Cu hum Ci sp]
+29.7 +23.9 71 +41 +42 опасность
перегрева
1006.7 1003.2
00 22.04 СЗ 3 10 км в посл. час гроза {дождь} 10/4 450 м
[Cb cap Ac As Cs]
+23.5 +23.3 99 +32 +32 очень
душно
1009.5 1006.0 +31.7
03 22.04 С 5 10 км мгла 9/1 450 м
[St Ac As Cs]
+26.2 +24.4 90 +37 +37 очень
душно
1009.9 1006.4
06 22.04 С 5 10 км мгла 9/1 450 м
[St As op Cs]
+26.1 +24.0 88 +36 +36 очень
душно
1008.6 1005.1
09 22.04 С 3 10 км мгла 8/1 450 м
[St As op Cs]
+26.0 +24.5 91 +36 +36 очень
душно
1007.5 1003.9
12 22.04 В 2 1800 м дымка {туман} 10/9 100 м
[St Ac trans]
+25.4 +24.7 96 +36 +36 очень
душно
1009.6 1006.1 +22.1 45
15 22.04 Ю 4 10 км мгла {туман} 8/4 360 м
[St Ac trans Cs]
+29.5 +25.2 78 +43 +48 опасность
перегрева
1011.0 1007.5
18 22.04 СВ 8 10 км дым 10/5 450 м
[St Cs]
+30.8 +26.3 77 +47 +48 опасность
перегрева
1009.3 1005.8
21 22.04 СВ 8 10 км дым 10/5 450 м
[St Cs]
+30.8 +26.3 77 +47 +47 опасность
перегрева
1009.3 1005.8
00 23.04 С 8 10 км мгла 6/5 360 м
[St Cs]
+26.9 +24.2 85 +37 +37 очень
душно
1009.1 1005.6 +32.8
03 23.04 С 4 10 км мгла 5/4 450 м
[St]
+26.9 +24.3 86 +38 +38 очень
душно
1010.7 1007.2
09 23.04 С 2 10 км мгла 5/5 300 м
[St]
+25.6 +24.5 94 +36 +36 очень
душно
1008.8 1005.3
12 23.04 С 5 6000 м туман на расстоянии 9/3 300 м
[St Cs]
+26.4 +24.1 87 +37 +37 очень
душно
1010.2 1006.7 +25.4
15 23.04 нст 4 10 км мгла {туман} 8/3 450 м
[St Cs]
+30.4 +25.9 77 +45 +52 опасность
перегрева
1011.2 1007.7
18 23.04 С 6 10 км мгла 9/4 450 м
[Cb cap Ac trans Cs]
+31.4 +25.3 70 +45 +48 опасность
перегрева
1009.7 1006.2
21 23.04 С 6 10 км мгла 8/3 450 м
[Cb cap Ac trans Cs]
+29.3 +24.3 75 +41 +42 опасность
перегрева
1008.3 1004.8
00 24.04 С 8 10 км мгла 9/3 450 м
[Cb calv Ac trans Cs]
+26.8 +24.5 87 +38 +38 очень
душно
1010.0 1006.5 +32.9
03 24.04 С 5 10 км мгла 9/4 450 м
[St Ac trans Cs]
+26.6 +23.9 85 +37 +37 очень
душно
1010.6 1007.1
06 24.04 С 5 10 км мгла 9/4 300 м
[St Ac trans Cs]
+26.1 +24.7 92 +37 +37 очень
душно
1009.9 1006.4
09 24.04 С 5 10 км мгла 9/5 300 м
[St Cs]
+25.8 +24.4 92 +36 +36 очень
душно
1008.8 1005.3

 

Местоположение метеостанции Barranquilla (Колумбия): широта 10.88 долгота -74.78 высота над уровнем моря 30 м.

В архиве по умолчанию представлена погода в Barranquilla за последнюю неделю. Архивные данные за месяц целиком и за предыдущие месяцы, начиная с января 2011 года, Вы можете получить, выбрав интересующий диапазон дат из раскрывающегося списка и нажав кнопку "Ввод!".


*Определитесь, кто Вы:
робот инопланетянин человек

Внимание! Время в таблицах - всемирное. Для получения местного времени необходимо прибавить поправку, которая в Barranquilla равна -5 ч.

Смотрите также архив погоды в соседних городах и на ближайших метеорологических станциях:

Погода в Santa Marta (Колумбия) (66 км)
Погода в Cartagena (Колумбия) (93 км)
Погода в Valledupar (Колумбия) (175 км)
Погода в Riohacha (Колумбия) (214 км)
Погода в Monteria (Колумбия) (257 км)
Погода в Maracaibo - La Chinit (Венесуэла) (335 км)
Погода в Maracaibo - La Canada (Венесуэла) (344 км)
Погода в Apartado (Колумбия) (400 км)
Погода в Cucuta (Колумбия) (412 км)
Погода в San Antonio del Tachira (Венесуэла) (423 км)

Пояснения к столбцам:

Ветер - указаны скорость ветра в м/с - средняя за 10 мин, порывы в срок и между сроками (в фигурных скобках) и направление, откуда дует ветер: С - северный, СВ - северо-восточный, В - восточный, ЮВ - юго-восточный, Ю - южный, ЮЗ - юго-западный, З - западный, СЗ - северо-западный.
Видимость - горизонтальная дальность видимости в метрах или километрах. При видимости от 1 до 10 км при отсутствии осадков обычно наблюдается дымка, при ухудшении видимости до 1 км и менее - туман. В сухую погоду видимость может ухудшаться дымом, пылью или мглою.
Явления - указаны атмосферные явления, наблюдавшиеся в срок или в последний час перед сроком; фигурными скобками обозначены явления, наблюдавшиеся между сроками (за 1-3 часа до срока); квадратными скобками обозначены град или гололедные отложения с указанием их диаметра в мм.
Облачность - указаны через наклонную черту общая и нижняя облачность в баллах и высота нижней границы облаков в метрах; квадратными скобками обозначены формы облаков: Ci - перистые, Cs - перисто-слоистые, Cc - перисто-кучевые, Ac - высококучевые, As - высокослоистые, Sc - слоисто-кучевые, Ns - слоисто-дождевые, Cu - кучевые, Cb - кучево-дождевые. Подробнее классификацию облаков см. в Атласе облаков (PDF).
T - Температура воздуха - температура, измеренная на высоте 2 м над землей.
Td - Температура точки росы - температура, при понижении до которой содержащийся в воздухе водяной пар достигнет насыщения.
f - Относительная влажность воздуха - влажноcть воздуха, измеренная на высоте 2 м над землей.
Te - Эффективная температура - температура, которую ощущает одетый по сезону человек в тени. Характеристика душности погоды. При расчете учитывается влияние влажности воздуха и скорости ветра на теплоощущения человека.
Tes - Эффективная температура на солнце - температура, которую ощущает человек, с поправкой на солнечный нагрев. Характеристика знойности погоды. Зависит от высоты солнца над горизонтом, облачности и скорости ветра. Ночью, в пасмурную погоду, а также при ветре 12 м/с и более поправка равна нулю.
P - Атмосферное давление - приведенное к уровню моря атмосферное давление.
Po - Атмосферное давление - измеренное на уровне метеостанции атмосферное давление.
Tmin - Минимальная температура - минимум температуры воздуха на высоте 2 м над землей.
Tmax - Максимальная температура - максимум температуры воздуха на высоте 2 м над землей.
R - Количество осадков - Количество выпавших осадков за период времени, мм. При наведении курсора мыши на число - период времени, за который выпало указанное количество осадков.
R24 - Количество осадков - Количество выпавших осадков за 24 часа, мм.
S - Снежный покров - Высота снежного покрова, см. При наведении курсора мыши на число - состояние снежного покрова и степень покрытия местности в баллах.